Flag for Denmark Weather past 2 weeks in Aarhus, Denmark

Now
41 °F

Quite cool.


Feels Like: 35 °F
Forecast: 44 / 53 °F
Wind: 9 mph from Southwest

Location: Tirstrup

Current Time: Mar 7, 2015 at 6:03:58 AM

Latest Report: Mar 7, 2015 at 5:20 AM


Visibility: N/A

Pressure: 30.15 "Hg

Humidity: 81%

Dew point: 36 °F

Location of AarhusLocation

Historic Weather in Aarhus — Graph

°F

Aarhus temperature yesterday

Maximum temperature yesterday: 48 °F (at 3:20 PM)
Minimum temperature yesterday: 41 °F (at 12:20 AM)
Average temperature yesterday: 44 °F

Past Weeks' High & Low Weather Summary

 TemperatureHumidityPressure
High48 °F (Mar 6, 3:20 PM)93% (Feb 20, 9:20 AM)30.42 "Hg (Feb 20, 9:20 AM)
Low28 °F (Feb 28, 1:50 AM)57% (Feb 26, 9:50 PM)29.15 "Hg (Feb 23, 9:20 AM)
Average38 °F82%29.73 "Hg
* Reported Feb 20 4:20 AM — Mar 7 4:50 AM, Aarhus, Weather by CustomWeather, © 2015

Note: Actual official high and low records may vary slightly from our data, if they occured in-between our weather recording intervals... More about our weather records

Advertising

Aarhus weather history for previous 24 hours

 ConditionsComfort  
Time TempWeatherWind HumidityBarometerVisibility
4:50 AM
Sat, Mar 7
41 °FQuite cool.8 mph76%30.18 "HgN/A
4:20 AM41 °FQuite cool.10 mph76%30.18 "HgN/A
3:50 AM41 °FQuite cool.8 mph76%30.21 "HgN/A
3:20 AM41 °FQuite cool.7 mph76%30.24 "HgN/A
2:50 AM41 °FQuite cool.8 mph81%30.27 "HgN/A
2:20 AM41 °FQuite cool.7 mph81%30.27 "HgN/A
1:50 AM43 °FQuite cool.8 mph76%30.27 "HgN/A
1:20 AM43 °FQuite cool.9 mph76%30.30 "HgN/A
12:50 AM43 °FQuite cool.9 mph76%30.30 "HgN/A
12:20 AM43 °FQuite cool.8 mph76%30.30 "HgN/A
11:50 PM
Fri, Mar 6
43 °FPassing clouds.9 mph76%30.33 "HgN/A
11:20 PM43 °FPassing clouds.7 mph81%30.33 "HgN/A
10:50 PM43 °FPassing clouds.7 mph81%30.36 "HgN/A
10:20 PM45 °FPassing clouds.8 mph81%30.33 "HgN/A
9:50 PM45 °FPassing clouds.7 mph81%30.33 "HgN/A
9:20 PM45 °FPassing clouds.8 mph81%30.33 "HgN/A
8:50 PM45 °FPassing clouds.5 mph81%30.33 "HgN/A
8:20 PM45 °FPassing clouds.6 mph87%30.33 "HgN/A
7:50 PM45 °FPartly cloudy.6 mph87%30.33 "HgN/A
7:20 PM45 °FPartly cloudy.8 mph87%30.36 "HgN/A
6:50 PM46 °FPartly cloudy.7 mph82%30.33 "HgN/A
6:20 PM46 °FPartly cloudy.9 mph76%30.33 "HgN/A
5:50 PM46 °FBroken clouds.8 mph82%30.33 "HgN/A
4:50 PM46 °FBroken clouds.6 mph82%30.33 "Hg6 mi
4:20 PM48 °FBroken clouds.7 mph76%30.30 "Hg6 mi
3:50 PM48 °FPartly sunny.12 mph76%30.33 "Hg6 mi
3:20 PM48 °FBroken clouds.9 mph76%30.33 "Hg6 mi
2:50 PM46 °FPartly sunny.13 mph82%30.33 "HgN/A
2:20 PM46 °FLow clouds.14 mph82%30.33 "HgN/A
1:50 PM46 °FLow clouds.14 mph82%30.33 "HgN/A
1:20 PM46 °FLow clouds.13 mph82%30.33 "HgN/A
12:50 PM46 °FLow clouds.12 mph82%30.33 "Hg5 mi
12:20 PM46 °FPartly sunny.12 mph82%30.33 "Hg5 mi
11:50 AM46 °FDrizzle. Partly sunny.14 mph82%30.33 "Hg5 mi
11:20 AM45 °FDrizzle. Partly sunny.15 mph87%30.33 "HgN/A
10:50 AM46 °FDrizzle. Partly sunny.15 mph82%30.33 "HgN/A
10:20 AM46 °FPartly sunny.12 mph82%30.33 "HgN/A
9:50 AM45 °FPartly sunny.13 mph87%30.33 "HgN/A
9:36 AM45 °FPartly sunny.13 mph87%30.33 "HgN/A
8:50 AM43 °FPartly sunny.10 mph87%30.30 "HgN/A
8:20 AM43 °FPartly sunny.10 mph87%30.30 "HgN/A
7:50 AM43 °FPartly sunny.10 mph87%30.30 "HgN/A
7:20 AM43 °FPartly sunny.9 mph87%30.30 "HgN/A
6:50 AM43 °FQuite cool.8 mph81%30.30 "HgN/A
6:20 AM43 °FQuite cool.7 mph81%30.30 "Hg6 mi
Weather by CustomWeather, © 2015

See weather overviewHow to use our weather pages